This demonstration page uses our WeatherBlox Daily Observations layout. Learn more.

Hourly Observations for December 14, 2019

Temp ( °F °C ) Dew Point ( °F °C ) Humidity (%) Winds ( mph kmh ) Pressure ( in mb ) Visibility ( mi km ) Precip ( " mm )
12:15 am 00:15 Cloudy 36 2 36 2 100 100 N 6 9 29.82 1010 4 6.43736 0 0
12:35 am 00:35 Cloudy 36 2 36 2 100 100 N 7 11 29.8 1009 4 6.43736 0 0
12:55 am 00:55 Cloudy 36 2 36 2 100 100 NNE 6 9 29.77 1008 5 8.0467 0 0
1:15 am 01:15 Cloudy 36 2 36 2 100 100 N 8 13 29.74 1007 3 4.82802 0 0
1:35 am 01:35 Cloudy 36 2 36 2 100 100 NNE 9 15 29.73 1007 3 4.82802 0 0
1:55 am 01:55 Cloudy 36 2 36 2 100 100 NW 3 6 29.72 1006 3 4.82802 0 0
2:15 am 02:15 Cloudy 36 2 36 2 100 100 N 6 9 29.7 1006 4 6.43736 0 0
2:35 am 02:35 Cloudy 36 2 36 2 100 100 NNW 3 6 29.69 1005 1.75 2.816345 0 0
2:55 am 02:55 Cloudy 36 2 36 2 100 100 NW 6 9 29.68 1005 1.25 2.011675 0 0
3:15 am 03:15 Cloudy 36 2 36 2 100 100 NW 8 13 29.67 1005 2.5 4.02335 0 0
3:35 am 03:35 Cloudy 36 2 36 2 100 100 NW 6 9 29.66 1004 4 6.43736 0 0
3:55 am 03:55 Cloudy 36 2 36 2 100 100 N 6 9 29.64 1004 2.5 4.02335 0 0
4:15 am 04:15 Cloudy 36 2 36 2 100 100 NNW 8 13 29.63 1003 1.5 2.41401 0 0
4:35 am 04:35 Cloudy 36 2 36 2 100 100 N 5 7 29.62 1003 1.5 2.41401 0 0
4:55 am 04:55 Cloudy 36 2 36 2 100 100 NNW 6 9 29.62 1003 2 3.21868 0 0
5:15 am 05:15 Cloudy 36 2 36 2 100 100 N 5 7 29.61 1003 5 8.0467 0 0
5:35 am 05:35 Cloudy 36 2 36 2 100 100 NW 8 13 29.6 1002 5 8.0467 0 0
5:55 am 05:55 Cloudy 36 2 36 2 100 100 N 8 13 29.58 1002 4 6.43736 0 0
6:15 am 06:15 Cloudy 36 2 36 2 100 100 NNW 3 6 29.56 1001 4 6.43736 0 0
6:35 am 06:35 Cloudy 36 2 36 2 100 100 NNW 6 9 29.56 1001 5 8.0467 0 0
6:55 am 06:55 Cloudy 36 2 36 2 100 100 NNW 8 13 29.56 1001 10 16.0934 0 0
7:15 am 07:15 Cloudy 36 2 36 2 100 100 N 6 9 29.55 1001 10 16.0934 0 0
7:35 am 07:35 Cloudy 36 2 36 2 100 100 NNW 5 7 29.53 1000 7 11.26538 0 0
7:55 am 07:55 Cloudy 36 2 36 2 100 100 Calm 29.52 1000 3 4.82802 0 0
8:15 am 08:15 Cloudy 36 2 36 2 100 100 Calm 29.51 999 2.5 4.02335 0 0
8:35 am 08:35 Cloudy 36 2 36 2 100 100 NNW 3 6 29.49 999 1.25 2.011675 0 0
8:55 am 08:55 Cloudy 36 2 36 2 100 100 NW 6 9 29.48 998 4 6.43736 0 0
9:15 am 09:15 Cloudy 36 2 36 2 100 100 NNW 7 11 29.48 998 7 11.26538 0 0
9:35 am 09:35 Cloudy 36 2 36 2 100 100 NNW 8 13 29.47 998 1.75 2.816345 0 0
9:55 am 09:55 Cloudy 36 2 36 2 100 100 NNW 8 13 29.44 997 3 4.82802 0 0
10:15 am 10:15 Cloudy 36 2 36 2 100 100 NNW 8 13 29.44 997 3 4.82802 0 0
10:35 am 10:35 Cloudy 36 2 36 2 100 100 NW 9 15 29.44 997 4 6.43736 0 0
10:55 am 10:55 Cloudy 36 2 36 2 100 100 SSW 6 9 29.45 997 1.25 2.011675 0 0
11:15 am 11:15 Cloudy 36 2 36 2 100 100 Calm 29.43 997 1 1.60934 0 0
11:35 am 11:35 Cloudy 37 3 37 3 100 100 NE 6 9 29.39 995 2 3.21868 0 0
11:55 am 11:55 Cloudy 37 3 37 3 100 100 N 6 9 29.37 994 7 11.26538 0 0
12:15 pm 12:15 Cloudy 37 3 37 3 100 100 WSW 5 7 29.39 995 5 8.0467 0 0
12:35 pm 12:35 Cloudy 37 3 37 3 100 100 Calm 29.39 995 3 4.82802 0 0
12:55 pm 12:55 Cloudy 39 4 39 4 100 100 WNW 5 7 29.4 995 5 8.0467 0 0
1:15 pm 13:15 Cloudy 39 4 39 4 100 100 WNW 6 9 29.39 995 3 4.82802 0 0
1:35 pm 13:35 Cloudy 41 5 41 5 100 100 WNW 3 6 29.36 994 10 16.0934 0 0
1:55 pm 13:55 Cloudy 41 5 41 5 100 100 Calm 29.35 994 5 8.0467 0 0
2:15 pm 14:15 Cloudy 43 6 43 6 100 100 SW 3 6 29.37 995 10 16.0934 0 0
2:35 pm 14:35 Cloudy 43 6 43 6 100 100 W 6 9 29.36 994 10 16.0934 0 0
2:55 pm 14:55 Cloudy 43 6 43 6 100 100 WSW 7 11 29.36 994 10 16.0934 0 0
3:15 pm 15:15 Cloudy 43 6 43 6 100 100 WSW 7 11 29.38 995 10 16.0934 0 0
3:35 pm 15:35 Cloudy 43 6 43 6 100 100 WSW 5 7 29.39 995 10 16.0934 0 0
3:55 pm 15:55 Mostly Cloudy 43 6 43 6 100 100 W 5 7 29.4 996 10 16.0934 0 0
4:15 pm 16:15 Mostly Cloudy 43 6 43 6 100 100 WNW 9 15 29.42 996 10 16.0934 0 0
4:35 pm 16:35 Cloudy 43 6 43 6 100 100 WNW 16 26 29.44 997 10 16.0934 0 0
4:55 pm 16:55 Partly Cloudy 43 6 39 4 87 87 WNW 18 30 29.46 998 10 16.0934 0 0
5:15 pm 17:15 Partly Cloudy 43 6 36 2 76 76 WNW 17 28 29.48 998 10 16.0934 0 0
5:35 pm 17:35 Partly Cloudy 43 6 36 2 76 76 WNW 24 39 29.49 999 10 16.0934 0 0
5:55 pm 17:55 Mostly Cloudy 43 6 34 1 71 71 WNW 22 35 29.5 999 10 16.0934 0.01 0.254
6:15 pm 18:15 Partly Cloudy 43 6 34 1 71 71 WNW 22 35 29.51 999 10 16.0934 0 0
6:35 pm 18:35 Cloudy 43 6 34 1 71 71 WNW 25 41 29.52 1000 10 16.0934 0 0
6:55 pm 18:55 Cloudy 43 6 32 0 66 66 WNW 23 37 29.54 1000 10 16.0934 0 0
7:15 pm 19:15 Cloudy 43 6 32 0 66 66 WNW 21 33 29.55 1001 10 16.0934 0 0
7:35 pm 19:35 Cloudy 43 6 32 0 66 66 WNW 15 24 29.57 1001 10 16.0934 0 0
7:55 pm 19:55 Cloudy 43 6 32 0 66 66 WNW 20 31 29.59 1002 10 16.0934 0 0
8:15 pm 20:15 Cloudy 41 5 32 0 70 70 WNW 25 41 29.59 1002 10 16.0934 0 0
8:35 pm 20:35 Cloudy 41 5 32 0 70 70 WNW 21 33 29.6 1002 10 16.0934 0 0
8:55 pm 20:55 Cloudy 41 5 32 0 70 70 NW 17 28 29.61 1003 10 16.0934 0 0
9:15 pm 21:15 Cloudy 41 5 32 0 70 70 NW 14 22 29.62 1003 10 16.0934 0 0
9:35 pm 21:35 Mostly Cloudy 41 5 32 0 70 70 WNW 18 30 29.62 1003 10 16.0934 0 0
9:55 pm 21:55 Partly Cloudy 41 5 32 0 70 70 WNW 18 30 29.63 1004 10 16.0934 0 0
10:15 pm 22:15 Partly Cloudy 41 5 32 0 70 70 W 10 17 29.65 1004 10 16.0934 0 0
10:35 pm 22:35 Partly Cloudy 41 5 32 0 70 70 WNW 16 26 29.65 1004 10 16.0934 0 0
10:55 pm 22:55 Partly Cloudy 41 5 32 0 70 70 WNW 10 17 29.66 1005 10 16.0934 0 0
11:15 pm 23:15 Partly Cloudy 41 5 32 0 70 70 W 8 13 29.68 1005 10 16.0934 0 0
11:35 pm 23:35 Mostly Cloudy 41 5 32 0 70 70 WNW 5 7 29.68 1005 10 16.0934 0 0
11:55 pm 23:55 Cloudy 41 5 32 0 70 70 W 6 9 29.68 1005 10 16.0934 0 0

Powered by AerisWeather